FW8379 Weather Reports


time (UTC)temp
C
wind
direction
speed
KPH
gust
KPH
rain 1hr
cm
rain 24hr
cm
rain mn
cm
humidity
%
barometer
mb
20260508213747 18 301 11.3 24.1 0.00 0.00 0.00 37 1019.4
20260508213244 18 291 17.7 25.7 0.00 0.00 0.00 36 1019.3
20260508212741 17 297 16.1 29.0 0.00 0.00 0.00 37 1019.7
20260508212237 18 293 27.4 37.0 0.00 0.00 0.00 37 1019.5
20260508211733 17 273 17.7 27.4 0.00 0.00 0.00 38 1019.5
20260508211229 18 273 25.7 41.8 0.00 0.00 0.00 35 1019.9
20260508210727 19 273 16.1 32.2 0.00 0.00 0.00 37 1019.3
20260508210223 18 296 14.5 27.4 0.00 0.00 0.00 37 1019.4
20260508205720 18 259 24.1 33.8 0.00 0.00 0.00 37 1019.7
20260508205217 18 269 33.8 37.0 0.00 0.00 0.00 37 1019.7
20260508204713 18 276 19.3 27.4 0.00 0.00 0.00 37 1019.7
20260508204209 17 286 12.9 24.1 0.00 0.00 0.00 39 1019.4
20260508203706 17 270 12.9 25.7 0.00 0.00 0.00 39 1019.7
20260508203202 18 322 19.3 37.0 0.00 0.00 0.00 37 1019.7
20260508202658 18 280 16.1 27.4 0.00 0.00 0.00 38 1019.7
20260508202155 18 266 19.3 29.0 0.00 0.00 0.00 39 1019.8
20260508201652 18 280 24.1 37.0 0.00 0.00 0.00 36 1019.7
20260508201149 18 280 20.9 29.0 0.00 0.00 0.00 39 1019.8
20260508200646 18 273 19.3 35.4 0.00 0.00 0.00 38 1019.8
20260508200142 17 269 20.9 33.8 0.00 0.00 0.00 35 1019.5
20260508195638 18 281 22.5 35.4 0.00 0.00 0.00 38 1019.7
20260508195135 18 302 16.1 29.0 0.00 0.00 0.00 38 1019.5
20260508194631 18 279 27.4 33.8 0.00 0.00 0.00 37 1019.5
20260508194128 17 289 24.1 32.2 0.00 0.00 0.00 38 1019.8
20260508193625 18 270 20.9 25.7 0.00 0.00 0.00 37 1019.7
20260508193122 17 272 25.7 33.8 0.00 0.00 0.00 38 1019.7
20260508192618 17 276 14.5 27.4 0.00 0.00 0.00 38 1019.8
20260508192116 18 293 14.5 29.0 0.00 0.00 0.00 39 1020.0
20260508191613 17 275 19.3 41.8 0.00 0.00 0.00 35 1019.8
20260508191109 17 291 17.7 25.7 0.00 0.00 0.00 37 1019.5
20260508190607 17 279 19.3 29.0 0.00 0.00 0.00 37 1019.7
20260508190103 17 277 19.3 27.4 0.00 0.00 0.00 38 1019.7
20260508185600 17 296 19.3 33.8 0.00 0.00 0.00 40 1020.1
20260508185057 17 275 20.9 33.8 0.00 0.00 0.00 39 1019.8
20260508184555 18 282 17.7 25.7 0.00 0.00 0.00 39 1020.0
20260508184051 17 296 22.5 25.7 0.00 0.00 0.00 42 1020.0
20260508183548 17 300 12.9 29.0 0.00 0.00 0.00 42 1020.3
20260508183044 17 286 19.3 24.1 0.00 0.00 0.00 41 1020.0
20260508182541 17 309 20.9 27.4 0.00 0.00 0.00 42 1020.3
20260508182037 17 254 19.3 35.4 0.00 0.00 0.00 38 1020.1
20260508181532 17 302 12.9 22.5 0.00 0.00 0.00 43 1020.1
20260508181030 17 275 17.7 22.5 0.00 0.00 0.00 41 1020.1
20260508180527 16 264 24.1 29.0 0.00 0.00 0.00 41 1020.4
20260508180023 17 280 16.1 24.1 0.00 0.00 0.00 42 1020.3
20260508175520 17 281 14.5 25.7 0.00 0.00 0.00 42 1020.3
20260508175017 17 299 20.9 24.1 0.00 0.00 0.00 41 1020.4
20260508174514 17 276 16.1 25.7 0.00 0.00 0.00 42 1020.3
20260508174011 16 234 17.7 25.7 0.00 0.00 0.00 42 1020.1
20260508173508 16 299 17.7 27.4 0.00 0.00 0.00 41 1020.3
20260508173004 16 264 19.3 24.1 0.00 0.00 0.00 42 1020.3
20260508172502 16 282 25.7 29.0 0.00 0.00 0.00 41 1020.4
20260508171958 16 290 12.9 24.1 0.00 0.00 0.00 43 1020.4
20260508171455 16 275 11.3 24.1 0.00 0.00 0.00 43 1020.0
20260508170951 16 285 20.9 32.2 0.00 0.00 0.00 40 1020.3
20260508170448 17 284 14.5 32.2 0.00 0.00 0.00 40 1020.1
20260508165945 16 275 11.3 22.5 0.00 0.00 0.00 41 1020.0
20260508165443 16 290 17.7 22.5 0.00 0.00 0.00 41 1020.3
20260508164939 17 265 14.5 24.1 0.00 0.00 0.00 41 1020.1
20260508164436 17 253 6.4 14.5 0.00 0.00 0.00 44 1019.9
20260508163933 16 277 11.3 14.5 0.00 0.00 0.00 43 1020.1
20260508163431 16 270 12.9 17.7 0.00 0.00 0.00 41 1020.3
20260508162926 16 283 16.1 17.7 0.00 0.00 0.00 40 1020.0
20260508162424 16 281 14.5 17.7 0.00 0.00 0.00 40 1020.1
20260508161921 16 291 9.7 14.5 0.00 0.00 0.00 43 1020.1
20260508161418 16 290 8.0 14.5 0.00 0.00 0.00 43 1020.0
20260508160915 16 286 11.3 16.1 0.00 0.00 0.00 42 1020.3
20260508160414 16 303 9.7 25.7 0.00 0.00 0.00 43 1020.1
20260508155909 15 290 17.7 22.5 0.00 0.00 0.00 44 1020.0
20260508155407 15 275 11.3 17.7 0.00 0.00 0.00 44 1019.9
20260508154904 15 259 4.8 9.7 0.00 0.00 0.00 51 1020.3
20260508154401 15 260 1.6 4.8 0.00 0.00 0.00 52 1020.0
20260508153858 15 305 4.8 8.0 0.00 0.00 0.00 50 1020.3
20260508153355 14 271 0.0 1.6 0.00 0.00 0.00 56 1020.1
20260508152851 13 271 1.6 1.6 0.00 0.00 0.00 60 1020.1
20260508152348 13 266 0.0 3.2 0.00 0.00 0.00 61 1020.0
20260508151844 12 291 0.0 3.2 0.00 0.00 0.00 63 1020.0
20260508151341 12 282 0.0 0.0 0.00 0.00 0.00 62 1020.1
20260508150837 12 234 0.0 0.0 0.00 0.00 0.00 62 1019.9
20260508150334 12 272 0.0 0.0 0.00 0.00 0.00 62 1020.0
20260508145830 11 251 0.0 0.0 0.00 0.00 0.00 65 1019.9
20260508145327 10 292 0.0 0.0 0.00 0.00 0.00 64 1020.0
20260508144823 10 280 0.0 0.0 0.00 0.00 0.00 67 1020.0
20260508144321 10 280 0.0 0.0 0.00 0.00 0.00 66 1020.1
20260508143819 10 274 0.0 0.0 0.00 0.00 0.00 68 1019.9
20260508143315 8 286 0.0 0.0 0.00 0.00 0.00 71 1019.9
20260508142812 7 290 0.0 0.0 0.00 0.00 0.00 74 1019.9
20260508142309 7 276 0.0 0.0 0.00 0.00 0.00 77 1020.1
20260508141805 6 268 0.0 0.0 0.00 0.00 0.00 79 1020.0
20260508141303 6 273 0.0 0.0 0.00 0.00 0.00 79 1020.1
20260508140800 6 258 0.0 0.0 0.00 0.00 0.00 79 1019.9
20260508140257 6 258 0.0 0.0 0.00 0.00 0.00 79 1020.3
20260508135752 6 259 0.0 0.0 0.00 0.00 0.00 78 1019.9
20260508135249 7 285 0.0 0.0 0.00 0.00 0.00 75 1020.0
20260508134745 7 286 0.0 0.0 0.00 0.00 0.00 75 1020.1
20260508134242 6 293 0.0 0.0 0.00 0.00 0.00 77 1019.9
20260508133739 5 287 0.0 0.0 0.00 0.00 0.00 80 1019.7
20260508133236 3 291 0.0 0.0 0.00 0.00 0.00 83 1020.0
20260508132734 2 293 0.0 0.0 0.00 0.00 0.00 86 1019.8
20260508132231 2 294 0.0 0.0 0.00 0.00 0.00 86 1019.7
20260508131726 2 293 0.0 0.0 0.00 0.00 0.00 85 1019.8
20260508131224 2 293 0.0 0.0 0.00 0.00 0.00 85 1019.7
20260508130720 2 294 0.0 0.0 0.00 0.00 0.00 86 1019.5
20260508130217 2 293 0.0 0.0 0.00 0.00 0.00 87 1019.5
20260508125713 1 293 0.0 0.0 0.00 0.00 0.00 88 1019.5
20260508125209 1 293 0.0 0.0 0.00 0.00 0.00 88 1019.8
20260508124708 0 293 0.0 0.0 0.00 0.00 0.00 88 1019.5
20260508124204 0 294 0.0 0.0 0.00 0.00 0.00 88 1019.3
20260508123703 0 299 0.0 0.0 0.00 0.00 0.00 89 1019.2
20260508123201 0 314 0.0 0.0 0.00 0.00 0.00 89 1019.2
20260508122656 0 293 0.0 0.0 0.00 0.00 0.00 89 1019.4
20260508122153 0 298 0.0 0.0 0.00 0.00 0.00 89 1019.3
20260508121651 0 302 0.0 0.0 0.00 0.00 0.00 89 1019.3
20260508121149 0 299 0.0 0.0 0.00 0.00 0.00 89 1019.3
20260508120646 0 305 0.0 0.0 0.00 0.00 0.00 89 1019.1
20260508120144 0 318 0.0 0.0 0.00 0.00 0.00 89 1019.3
20260508115642 0 294 0.0 0.0 0.00 0.00 0.00 89 1019.3
20260508115138 0 272 0.0 0.0 0.00 0.00 0.00 88 1019.3
20260508114635 0 281 0.0 0.0 0.00 0.00 0.00 88 1019.1
20260508114131 0 299 0.0 0.0 0.00 0.00 0.00 88 1019.2
20260508113629 0 304 0.0 0.0 0.00 0.00 0.00 88 1018.9
20260508113127 1 293 0.0 0.0 0.00 0.00 0.00 87 1019.1
20260508112623 1 293 0.0 0.0 0.00 0.00 0.00 87 1019.1
20260508112120 1 297 0.0 0.0 0.00 0.00 0.00 87 1019.4
20260508111616 1 303 0.0 0.0 0.00 0.00 0.00 87 1019.2
20260508111114 1 295 0.0 0.0 0.00 0.00 0.00 87 1018.8
20260508110612 1 295 0.0 0.0 0.00 0.00 0.00 87 1018.9
20260508110107 1 296 0.0 0.0 0.00 0.00 0.00 87 1019.1
20260508105602 1 297 0.0 0.0 0.00 0.00 0.00 87 1018.9
20260508105100 1 312 0.0 0.0 0.00 0.00 0.00 87 1019.2
20260508104557 1 292 0.0 0.0 0.00 0.00 0.00 87 1018.9
20260508104054 1 292 0.0 0.0 0.00 0.00 0.00 87 1019.1
20260508103551 1 291 0.0 0.0 0.00 0.00 0.00 86 1018.8
20260508103048 1 282 0.0 0.0 0.00 0.00 0.00 86 1018.9
20260508102546 1 288 0.0 0.0 0.00 0.00 0.00 85 1018.4
20260508102043 1 288 0.0 0.0 0.00 0.00 0.00 85 1018.9
20260508101541 1 300 0.0 0.0 0.00 0.00 0.00 85 1018.8
20260508101037 1 278 0.0 0.0 0.00 0.00 0.00 85 1018.7
20260508100536 1 303 0.0 0.0 0.00 0.00 0.00 84 1018.7
20260508100032 1 293 0.0 0.0 0.00 0.00 0.00 84 1018.7
20260508095529 1 303 0.0 0.0 0.00 0.00 0.00 84 1018.8
20260508095026 2 296 0.0 0.0 0.00 0.00 0.00 84 1018.6
20260508094523 2 275 0.0 0.0 0.00 0.00 0.00 85 1018.7
20260508094020 1 288 0.0 0.0 0.00 0.00 0.00 86 1018.6
20260508093517 1 300 0.0 0.0 0.00 0.00 0.00 85 1018.7
20260508093015 1 304 0.0 0.0 0.00 0.00 0.00 85 1018.6
20260508092512 1 297 0.0 0.0 0.00 0.00 0.00 84 1018.4
20260508092011 2 297 0.0 0.0 0.00 0.00 0.00 83 1018.7
20260508091507 2 299 0.0 0.0 0.00 0.00 0.00 83 1018.7
20260508090959 1 297 0.0 0.0 0.00 0.00 0.00 84 1018.4
20260508090458 2 303 0.0 0.0 0.00 0.00 0.00 84 1018.7
20260508085953 1 293 0.0 0.0 0.00 0.00 0.00 85 1018.8
20260508085450 1 303 0.0 0.0 0.00 0.00 0.00 85 1018.7
20260508084947 1 295 0.0 0.0 0.00 0.00 0.00 85 1018.6
20260508084444 1 298 0.0 0.0 0.00 0.00 0.00 85 1018.7
20260508083942 1 296 0.0 0.0 0.00 0.00 0.00 84 1018.7
20260508083438 2 292 0.0 0.0 0.00 0.00 0.00 83 1018.7
20260508082938 2 288 0.0 0.0 0.00 0.00 0.00 82 1018.8
20260508082436 2 288 0.0 0.0 0.00 0.00 0.00 81 1018.6
20260508081934 2 288 0.0 0.0 0.00 0.00 0.00 80 1018.8
20260508081430 3 285 0.0 0.0 0.00 0.00 0.00 80 1018.7
20260508080926 3 280 0.0 0.0 0.00 0.00 0.00 81 1018.7
20260508080425 2 279 0.0 1.6 0.00 0.00 0.00 81 1019.1
20260508075921 2 334 1.6 3.2 0.00 0.00 0.00 81 1018.6
20260508075419 3 302 0.0 1.6 0.00 0.00 0.00 81 1018.8
20260508074916 2 301 3.2 8.0 0.00 0.00 0.00 82 1018.8
20260508074413 2 316 3.2 3.2 0.00 0.00 0.00 82 1018.7
20260508073910 2 312 0.0 0.0 0.00 0.00 0.00 81 1018.7
20260508073408 3 317 0.0 0.0 0.00 0.00 0.00 80 1018.9
20260508072904 3 316 0.0 0.0 0.00 0.00 0.00 80 1018.7
20260508072400 3 298 0.0 1.6 0.00 0.00 0.00 80 1018.6
20260508071858 3 300 0.0 0.0 0.00 0.00 0.00 80 1018.8
20260508071356 3 305 0.0 1.6 0.00 0.00 0.00 79 1019.1
20260508070853 2 343 4.8 4.8 0.00 0.00 0.00 80 1018.9
20260508070351 2 299 0.0 0.0 0.00 0.00 0.00 80 1018.8
20260508065849 3 299 0.0 0.0 0.00 0.00 0.00 79 1018.8
20260508065347 3 298 0.0 0.0 0.00 0.00 0.00 79 1018.8
20260508064845 3 298 0.0 0.0 0.00 0.00 0.00 79 1018.7
20260508064342 3 297 0.0 0.0 0.00 0.00 0.00 78 1018.7
20260508063839 3 295 0.0 0.0 0.00 0.00 0.00 78 1018.6
20260508063337 3 299 0.0 0.0 0.00 0.00 0.00 78 1018.9
20260508062828 3 299 0.0 0.0 0.00 0.00 0.00 78 1018.8
20260508062326 3 300 0.0 0.0 0.00 0.00 0.00 78 1018.9
20260508061823 3 300 0.0 0.0 0.00 0.00 0.00 77 1018.7
20260508061320 4 307 0.0 0.0 0.00 0.00 0.00 76 1018.6
20260508060816 5 280 0.0 0.0 0.00 0.00 0.00 75 1018.6
20260508060314 4 280 0.0 0.0 0.00 0.00 0.00 76 1018.4
20260508055809 4 295 0.0 0.0 0.00 0.00 0.00 75 1018.6
20260508055307 4 296 0.0 0.0 0.00 0.00 0.00 75 1018.6
20260508054803 5 287 0.0 0.0 0.00 0.00 0.00 75 1018.4
20260508054301 5 275 0.0 0.0 0.00 0.00 0.00 74 1018.6
20260508053757 5 277 0.0 0.0 0.00 0.00 0.00 74 1018.3
20260508053255 5 294 0.0 0.0 0.00 0.00 0.00 73 1018.3
20260508052752 5 299 0.0 0.0 0.00 0.00 0.00 73 1018.3
20260508052249 5 299 0.0 0.0 0.00 0.00 0.00 71 1018.4
20260508051745 6 316 0.0 0.0 0.00 0.00 0.00 70 1018.3
20260508051240 6 295 0.0 0.0 0.00 0.00 0.00 72 1018.3
20260508050737 6 297 0.0 0.0 0.00 0.00 0.00 70 1018.3
20260508050235 6 295 0.0 0.0 0.00 0.00 0.00 70 1018.4
20260508045730 6 281 0.0 0.0 0.00 0.00 0.00 70 1018.4
20260508045228 6 277 0.0 0.0 0.00 0.00 0.00 69 1018.4
20260508044725 7 276 0.0 0.0 0.00 0.00 0.00 68 1018.7
20260508044222 7 272 0.0 0.0 0.00 0.00 0.00 68 1018.6
20260508043718 6 259 0.0 0.0 0.00 0.00 0.00 69 1018.4
20260508043216 6 285 0.0 0.0 0.00 0.00 0.00 69 1018.6
20260508042712 6 297 0.0 0.0 0.00 0.00 0.00 69 1018.4
20260508042210 6 298 0.0 0.0 0.00 0.00 0.00 69 1018.2
20260508041706 6 298 0.0 0.0 0.00 0.00 0.00 68 1018.3
20260508041203 6 303 0.0 0.0 0.00 0.00 0.00 68 1018.6
20260508040659 7 303 0.0 0.0 0.00 0.00 0.00 66 1018.4
20260508040157 7 299 0.0 0.0 0.00 0.00 0.00 66 1018.4
20260508035654 8 274 0.0 0.0 0.00 0.00 0.00 63 1018.4
20260508035151 8 286 0.0 0.0 0.00 0.00 0.00 62 1018.1
20260508034648 7 303 0.0 0.0 0.00 0.00 0.00 64 1018.2
20260508034145 8 303 0.0 0.0 0.00 0.00 0.00 64 1018.0
20260508033642 8 303 0.0 0.0 0.00 0.00 0.00 62 1018.0
20260508033141 8 309 0.0 0.0 0.00 0.00 0.00 63 1018.1
20260508032637 8 301 0.0 0.0 0.00 0.00 0.00 63 1018.2
20260508032134 8 299 0.0 0.0 0.00 0.00 0.00 63 1018.2
20260508031631 9 302 0.0 0.0 0.00 0.00 0.00 60 1018.0
20260508031127 9 296 0.0 0.0 0.00 0.00 0.00 60 1018.1
20260508030624 9 295 0.0 0.0 0.00 0.00 0.00 60 1017.8
20260508030122 10 296 0.0 0.0 0.00 0.00 0.00 59 1018.1
20260508025618 10 289 0.0 0.0 0.00 0.00 0.00 58 1018.1
20260508025115 10 296 0.0 0.0 0.00 0.00 0.00 56 1017.8
20260508024610 11 296 1.6 1.6 0.00 0.00 0.00 55 1017.8
20260508024108 11 296 0.0 0.0 0.00 0.00 0.00 55 1017.7
20260508023604 12 296 0.0 0.0 0.00 0.00 0.00 52 1017.7
20260508023102 13 294 0.0 0.0 0.00 0.00 0.00 50 1017.6
20260508022557 13 296 1.6 1.6 0.00 0.00 0.00 50 1017.7
20260508022055 13 293 0.0 1.6 0.00 0.00 0.00 49 1017.6
20260508021550 14 310 3.2 4.8 0.00 0.00 0.00 48 1017.8
20260508021047 15 309 4.8 4.8 0.00 0.00 0.00 46 1017.7
20260508020544 15 288 4.8 4.8 0.00 0.00 0.00 46 1017.5
20260508020042 15 293 3.2 9.7 0.00 0.00 0.00 46 1017.6
20260508015539 16 292 6.4 11.3 0.00 0.00 0.00 45 1017.5
20260508015036 16 279 11.3 14.5 0.00 0.00 0.00 42 1017.5
20260508014532 16 276 9.7 12.9 0.00 0.00 0.00 43 1017.5
20260508014028 16 274 6.4 12.9 0.00 0.00 0.00 43 1017.5
20260508013525 16 255 9.7 16.1 0.00 0.00 0.00 42 1017.6
20260508013022 16 270 8.0 12.9 0.00 0.00 0.00 41 1017.6
20260508012519 17 290 11.3 14.5 0.00 0.00 0.00 41 1017.6
20260508012016 17 298 11.3 14.5 0.00 0.00 0.00 41 1017.6
20260508011515 17 296 12.9 20.9 0.00 0.00 0.00 41 1017.3
20260508011012 17 273 12.9 20.9 0.00 0.00 0.00 40 1017.3
20260508010509 17 283 12.9 20.9 0.00 0.00 0.00 41 1017.3
20260508010006 17 269 11.3 16.1 0.00 0.00 0.00 41 1017.5
20260508005502 17 282 9.7 17.7 0.00 0.00 0.00 40 1017.7
20260508004959 17 288 8.0 12.9 0.00 0.00 0.00 41 1017.5
20260508004455 17 289 11.3 17.7 0.00 0.00 0.00 41 1017.5
20260508003952 17 302 12.9 16.1 0.00 0.00 0.00 39 1017.7
20260508003449 17 272 14.5 17.7 0.00 0.00 0.00 41 1017.6
20260508002946 17 318 9.7 25.7 0.00 0.00 0.00 42 1017.6
20260508002442 17 305 8.0 16.1 0.00 0.00 0.00 41 1017.7
20260508001938 18 290 9.7 16.1 0.00 0.00 0.00 41 1017.7
20260508001435 18 322 8.0 17.7 0.00 0.00 0.00 42 1018.0
20260508000931 17 304 8.0 22.5 0.00 0.00 0.00 43 1017.7
20260508000427 17 286 9.7 14.5 0.00 0.00 0.00 45 1017.8
20260507235924 17 307 12.9 16.1 0.00 0.00 0.00 44 1018.1
20260507235421 17 328 8.0 12.9 0.00 0.00 0.00 45 1017.8
20260507234919 16 290 11.3 17.7 0.00 0.00 0.00 45 1018.0
20260507234415 16 293 6.4 12.9 0.00 0.00 0.00 45 1018.1
20260507233912 16 285 4.8 8.0 0.00 0.00 0.00 44 1018.2
20260507233409 16 285 6.4 11.3 0.00 0.00 0.00 45 1018.2
20260507232907 16 277 8.0 11.3 0.00 0.00 0.00 44 1018.1
20260507232403 16 281 8.0 14.5 0.00 0.00 0.00 44 1018.3
20260507231900 16 314 9.7 14.5 0.00 0.00 0.00 45 1018.2
20260507231357 16 312 9.7 12.9 0.00 0.00 0.00 45 1018.3
20260507230853 16 322 8.0 14.5 0.00 0.00 0.00 45 1018.4
20260507230351 16 290 11.3 24.1 0.00 0.00 0.00 44 1018.6
20260507225850 16 300 11.3 14.5 0.00 0.00 0.00 45 1018.7
20260507225347 16 280 8.0 16.1 0.00 0.00 0.00 45 1018.7
20260507224843 16 322 19.3 22.5 0.00 0.00 0.00 44 1018.6
20260507224340 16 305 17.7 24.1 0.00 0.00 0.00 45 1018.8
20260507223836 16 275 17.7 25.7 0.00 0.00 0.00 44 1018.8
20260507223332 17 274 14.5 24.1 0.00 0.00 0.00 44 1018.8
20260507222830 17 311 24.1 29.0 0.00 0.00 0.00 42 1018.7
20260507222326 17 264 19.3 29.0 0.00 0.00 0.00 42 1018.9
20260507221823 17 293 16.1 20.9 0.00 0.00 0.00 42 1018.7
20260507221320 18 248 24.1 29.0 0.00 0.00 0.00 42 1018.7
20260507220815 18 265 17.7 20.9 0.00 0.00 0.00 40 1018.8
20260507220314 17 248 8.0 20.9 0.00 0.00 0.00 43 1018.8
20260507215810 17 309 16.1 22.5 0.00 0.00 0.00 41 1019.1
20260507215307 17 303 16.1 20.9 0.00 0.00 0.00 43 1019.1
20260507214804 17 302 14.5 27.4 0.00 0.00 0.00 43 1019.2
20260507214302 17 268 16.1 27.4 0.00 0.00 0.00 43 1019.1